| time (UTC) | temp C | wind direction | speed KPH | gust KPH | rain 1hr cm | rain 24hr cm | rain mn cm | humidity % | barometer mb |
| 20260507192731 | 12 | 328 | 0.0 | 0.0 | 0.00 | 0.00 | 0.08 | 77 | 1005.1 |
| 20260507192233 | 12 | 306 | 0.0 | 3.2 | 0.00 | 0.00 | 0.08 | 77 | 1005.1 |
| 20260507191731 | 12 | 294 | 0.0 | 4.8 | 0.00 | 0.00 | 0.08 | 76 | 1005.1 |
| 20260507191229 | 12 | 25 | 3.2 | 6.4 | 0.00 | 0.00 | 0.08 | 76 | 1005.1 |
| 20260507190731 | 12 | 320 | 0.0 | 6.4 | 0.00 | 0.00 | 0.08 | 75 | 1005.1 |
| 20260507190231 | 12 | 27 | 4.8 | 6.4 | 0.00 | 0.00 | 0.08 | 76 | 1005.1 |
| 20260507185730 | 12 | 6 | 3.2 | 6.4 | 0.00 | 0.00 | 0.08 | 75 | 1005.1 |
| 20260507185230 | 12 | 182 | 1.6 | 6.4 | 0.00 | 0.00 | 0.08 | 75 | 1005.1 |
| 20260507184731 | 12 | 10 | 1.6 | 1.6 | 0.00 | 0.00 | 0.08 | 75 | 1005.1 |
| 20260507184233 | 12 | 4 | 1.6 | 1.6 | 0.00 | 0.00 | 0.08 | 76 | 1005.1 |
| 20260507183731 | 12 | 11 | 1.6 | 3.2 | 0.00 | 0.00 | 0.08 | 77 | 1005.1 |
| 20260507183233 | 12 | 281 | 3.2 | 4.8 | 0.00 | 0.00 | 0.08 | 76 | 1005.1 |
| 20260507182731 | 12 | 357 | 3.2 | 6.4 | 0.00 | 0.00 | 0.08 | 76 | 1005.1 |
| 20260507182230 | 12 | 72 | 4.8 | 8.0 | 0.00 | 0.00 | 0.08 | 77 | 1005.1 |
| 20260507181730 | 12 | 17 | 3.2 | 6.4 | 0.00 | 0.00 | 0.08 | 78 | 1005.1 |
| 20260507181232 | 12 | 12 | 3.2 | 4.8 | 0.00 | 0.00 | 0.08 | 79 | 1005.1 |
| 20260507180732 | 12 | 23 | 0.0 | 6.4 | 0.00 | 0.00 | 0.08 | 79 | 1005.1 |
| 20260507180238 | 12 | 39 | 3.2 | 3.2 | 0.00 | 0.00 | 0.08 | 79 | 1005.1 |
| 20260507175732 | 12 | 320 | 0.0 | 6.4 | 0.00 | 0.00 | 0.08 | 80 | 1005.1 |
| 20260507175232 | 12 | 73 | 4.8 | 6.4 | 0.00 | 0.00 | 0.08 | 81 | 1005.1 |
| 20260507174730 | 12 | 189 | 0.0 | 1.6 | 0.00 | 0.00 | 0.08 | 82 | 1005.1 |
| 20260507174230 | 12 | 168 | 1.6 | 6.4 | 0.00 | 0.00 | 0.08 | 82 | 1005.4 |
| 20260507173732 | 12 | 204 | 1.6 | 3.2 | 0.00 | 0.00 | 0.08 | 83 | 1005.1 |
| 20260507173229 | 12 | 57 | 4.8 | 6.4 | 0.00 | 0.00 | 0.08 | 82 | 1005.4 |
| 20260507172731 | 12 | 324 | 0.0 | 6.4 | 0.00 | 0.00 | 0.08 | 82 | 1005.8 |
| 20260507172232 | 12 | 124 | 6.4 | 9.7 | 0.00 | 0.00 | 0.08 | 82 | 1005.8 |
| 20260507171731 | 12 | 316 | 0.0 | 4.8 | 0.00 | 0.00 | 0.08 | 81 | 1005.4 |
| 20260507171231 | 12 | 55 | 4.8 | 4.8 | 0.00 | 0.00 | 0.08 | 80 | 1005.8 |
| 20260507170732 | 13 | 237 | 4.8 | 11.3 | 0.00 | 0.00 | 0.08 | 80 | 1005.8 |
| 20260507170235 | 13 | 296 | 0.0 | 1.6 | 0.00 | 0.00 | 0.08 | 82 | 1005.8 |
| 20260507165729 | 13 | 329 | 0.0 | 4.8 | 0.00 | 0.00 | 0.08 | 82 | 1005.8 |
| 20260507165232 | 12 | 2 | 1.6 | 6.4 | 0.00 | 0.00 | 0.08 | 79 | 1005.8 |
| 20260507164731 | 12 | 262 | 1.6 | 6.4 | 0.00 | 0.00 | 0.08 | 78 | 1006.1 |
| 20260507164233 | 12 | 124 | 8.0 | 8.0 | 0.00 | 0.00 | 0.08 | 77 | 1006.1 |
| 20260507163732 | 13 | 231 | 1.6 | 9.7 | 0.00 | 0.00 | 0.08 | 78 | 1006.1 |
| 20260507163231 | 12 | 304 | 0.0 | 6.4 | 0.00 | 0.00 | 0.08 | 78 | 1006.1 |
| 20260507162730 | 12 | 141 | 0.0 | 3.2 | 0.00 | 0.00 | 0.08 | 78 | 1006.1 |
| 20260507162233 | 12 | 70 | 6.4 | 11.3 | 0.00 | 0.00 | 0.08 | 78 | 1006.1 |
| 20260507161732 | 13 | 282 | 3.2 | 8.0 | 0.00 | 0.00 | 0.08 | 80 | 1006.1 |
| 20260507161233 | 13 | 71 | 3.2 | 11.3 | 0.00 | 0.00 | 0.08 | 80 | 1006.1 |
| 20260507160732 | 13 | 28 | 4.8 | 4.8 | 0.00 | 0.00 | 0.08 | 80 | 1006.1 |
| 20260507160232 | 13 | 338 | 0.0 | 6.4 | 0.00 | 0.00 | 0.08 | 80 | 1006.1 |
| 20260507155732 | 13 | 324 | 0.0 | 3.2 | 0.00 | 0.00 | 0.08 | 81 | 1006.1 |
| 20260507155232 | 13 | 352 | 1.6 | 4.8 | 0.00 | 0.00 | 0.08 | 81 | 1006.1 |
| 20260507154732 | 13 | 297 | 3.2 | 6.4 | 0.00 | 0.00 | 0.08 | 80 | 1006.1 |
| 20260507154231 | 13 | 322 | 1.6 | 1.6 | 0.00 | 0.00 | 0.08 | 81 | 1006.1 |
| 20260507153732 | 13 | 312 | 0.0 | 0.0 | 0.00 | 0.00 | 0.08 | 82 | 1006.1 |
| 20260507153232 | 13 | 326 | 0.0 | 1.6 | 0.00 | 0.00 | 0.08 | 81 | 1006.1 |
| 20260507152731 | 13 | 314 | 0.0 | 3.2 | 0.00 | 0.00 | 0.08 | 82 | 1006.1 |
| 20260507152231 | 13 | 343 | 0.0 | 3.2 | 0.00 | 0.00 | 0.08 | 83 | 1006.1 |
| 20260507151732 | 13 | 171 | 4.8 | 6.4 | 0.00 | 0.00 | 0.08 | 82 | 1006.1 |
| 20260507151231 | 13 | 310 | 0.0 | 1.6 | 0.00 | 0.00 | 0.08 | 83 | 1006.1 |
| 20260507150732 | 13 | 300 | 0.0 | 3.2 | 0.00 | 0.00 | 0.08 | 83 | 1006.1 |
| 20260507150232 | 13 | 318 | 0.0 | 3.2 | 0.00 | 0.00 | 0.08 | 83 | 1006.1 |
| 20260507145731 | 13 | 314 | 1.6 | 1.6 | 0.00 | 0.00 | 0.08 | 84 | 1006.1 |
| 20260507145232 | 13 | 320 | 1.6 | 1.6 | 0.00 | 0.00 | 0.08 | 85 | 1006.1 |
| 20260507144732 | 13 | 310 | 3.2 | 3.2 | 0.00 | 0.00 | 0.08 | 85 | 1006.1 |
| 20260507144232 | 13 | 322 | 0.0 | 0.0 | 0.00 | 0.00 | 0.08 | 86 | 1006.1 |
| 20260507143740 | 13 | 312 | 0.0 | 0.0 | 0.00 | 0.00 | 0.08 | 86 | 1005.8 |
| 20260507143232 | 13 | 311 | 0.0 | 0.0 | 0.00 | 0.00 | 0.08 | 86 | 1005.8 |
| 20260507142732 | 14 | 20 | 0.0 | 3.2 | 0.00 | 0.00 | 0.08 | 86 | 1005.8 |
| 20260507142232 | 14 | 23 | 1.6 | 3.2 | 0.00 | 0.00 | 0.08 | 86 | 1005.8 |
| 20260507141731 | 14 | 334 | 1.6 | 4.8 | 0.00 | 0.00 | 0.08 | 86 | 1006.1 |
| 20260507141236 | 14 | 326 | 0.0 | 3.2 | 0.00 | 0.00 | 0.08 | 86 | 1005.8 |
| 20260507140731 | 14 | 331 | 1.6 | 3.2 | 0.00 | 0.00 | 0.08 | 86 | 1006.1 |
| 20260507140232 | 14 | 322 | 3.2 | 3.2 | 0.00 | 0.00 | 0.08 | 86 | 1006.1 |
| 20260507135732 | 14 | 284 | 0.0 | 3.2 | 0.00 | 0.00 | 0.08 | 86 | 1006.1 |
| 20260507135232 | 14 | 318 | 0.0 | 3.2 | 0.00 | 0.00 | 0.08 | 86 | 1006.1 |
| 20260507134731 | 14 | 313 | 0.0 | 1.6 | 0.00 | 0.00 | 0.08 | 86 | 1006.1 |
| 20260507134230 | 14 | 327 | 0.0 | 0.0 | 0.00 | 0.00 | 0.08 | 86 | 1006.1 |
| 20260507133731 | 14 | 299 | 0.0 | 3.2 | 0.00 | 0.00 | 0.08 | 86 | 1006.1 |
| 20260507133232 | 15 | 279 | 0.0 | 3.2 | 0.00 | 0.00 | 0.08 | 86 | 1006.1 |
| 20260507132732 | 15 | 321 | 0.0 | 3.2 | 0.00 | 0.00 | 0.08 | 86 | 1006.1 |
| 20260507132232 | 15 | 323 | 0.0 | 1.6 | 0.00 | 0.00 | 0.08 | 86 | 1005.8 |
| 20260507131732 | 15 | 334 | 0.0 | 4.8 | 0.00 | 0.00 | 0.08 | 86 | 1005.8 |
| 20260507131233 | 15 | 330 | 0.0 | 1.6 | 0.00 | 0.00 | 0.08 | 86 | 1005.4 |
| 20260507130732 | 15 | 325 | 1.6 | 3.2 | 0.00 | 0.00 | 0.08 | 87 | 1005.8 |
| 20260507130231 | 15 | 289 | 0.0 | 1.6 | 0.00 | 0.00 | 0.08 | 87 | 1005.8 |
| 20260507125732 | 14 | 298 | 0.0 | 0.0 | 0.00 | 0.00 | 0.08 | 89 | 1005.4 |
| 20260507125232 | 13 | 318 | 0.0 | 0.0 | 0.00 | 0.00 | 0.08 | 92 | 1005.4 |
| 20260507124732 | 13 | 321 | 0.0 | 0.0 | 0.00 | 0.00 | 0.08 | 92 | 1006.1 |
| 20260507124232 | 13 | 338 | 0.0 | 0.0 | 0.00 | 0.00 | 0.08 | 92 | 1005.8 |
| 20260507123731 | 13 | 319 | 0.0 | 0.0 | 0.00 | 0.00 | 0.08 | 92 | 1005.8 |
| 20260507123231 | 13 | 326 | 0.0 | 0.0 | 0.00 | 0.00 | 0.08 | 93 | 1005.8 |
| 20260507122731 | 13 | 311 | 0.0 | 0.0 | 0.00 | 0.00 | 0.08 | 93 | 1005.8 |
| 20260507122231 | 13 | 297 | 0.0 | 0.0 | 0.00 | 0.00 | 0.08 | 93 | 1005.8 |
| 20260507121730 | 13 | 324 | 0.0 | 0.0 | 0.00 | 0.00 | 0.08 | 93 | 1005.4 |
| 20260507121229 | 13 | 310 | 0.0 | 0.0 | 0.00 | 0.00 | 0.08 | 94 | 1005.4 |
| 20260507120731 | 13 | 322 | 0.0 | 3.2 | 0.00 | 0.00 | 0.08 | 93 | 1005.4 |
| 20260507120231 | 13 | 314 | 0.0 | 0.0 | 0.00 | 0.00 | 0.08 | 93 | 1005.4 |
| 20260507115732 | 13 | 303 | 0.0 | 0.0 | 0.00 | 0.00 | 0.08 | 93 | 1005.8 |
| 20260507115230 | 13 | 286 | 0.0 | 0.0 | 0.00 | 0.00 | 0.08 | 93 | 1005.4 |
| 20260507114731 | 13 | 315 | 0.0 | 0.0 | 0.00 | 0.00 | 0.08 | 93 | 1005.8 |
| 20260507114231 | 13 | 313 | 0.0 | 0.0 | 0.00 | 0.00 | 0.08 | 93 | 1006.1 |
| 20260507113731 | 13 | 302 | 0.0 | 0.0 | 0.00 | 0.00 | 0.08 | 94 | 1005.8 |
| 20260507113232 | 13 | 320 | 0.0 | 0.0 | 0.00 | 0.00 | 0.08 | 94 | 1005.4 |
| 20260507112731 | 13 | 310 | 0.0 | 0.0 | 0.00 | 0.00 | 0.08 | 94 | 1005.8 |
| 20260507112229 | 13 | 291 | 0.0 | 0.0 | 0.00 | 0.00 | 0.08 | 94 | 1005.4 |
| 20260507111731 | 13 | 305 | 0.0 | 0.0 | 0.00 | 0.00 | 0.08 | 94 | 1005.4 |
| 20260507111230 | 13 | 315 | 0.0 | 0.0 | 0.00 | 0.00 | 0.08 | 93 | 1005.1 |
| 20260507110730 | 13 | 311 | 0.0 | 0.0 | 0.00 | 0.00 | 0.08 | 93 | 1005.1 |
| 20260507110230 | 13 | 316 | 0.0 | 0.0 | 0.00 | 0.00 | 0.08 | 93 | 1005.4 |
| 20260507105729 | 13 | 291 | 0.0 | 0.0 | 0.00 | 0.00 | 0.08 | 93 | 1005.4 |
| 20260507105232 | 13 | 314 | 0.0 | 0.0 | 0.00 | 0.00 | 0.08 | 93 | 1005.1 |
| 20260507104729 | 13 | 316 | 0.0 | 0.0 | 0.00 | 0.00 | 0.08 | 93 | 1005.1 |
| 20260507104232 | 13 | 312 | 0.0 | 0.0 | 0.00 | 0.00 | 0.08 | 93 | 1005.1 |
| 20260507103731 | 13 | 306 | 0.0 | 0.0 | 0.00 | 0.00 | 0.08 | 93 | 1005.1 |
| 20260507103232 | 13 | 304 | 0.0 | 0.0 | 0.00 | 0.00 | 0.08 | 93 | 1005.1 |
| 20260507102732 | 13 | 296 | 0.0 | 3.2 | 0.00 | 0.00 | 0.08 | 93 | 1005.1 |
| 20260507102230 | 13 | 307 | 0.0 | 0.0 | 0.00 | 0.00 | 0.08 | 93 | 1005.1 |
| 20260507101731 | 13 | 299 | 0.0 | 4.8 | 0.00 | 0.00 | 0.08 | 93 | 1004.7 |
| 20260507101231 | 13 | 295 | 0.0 | 0.0 | 0.00 | 0.00 | 0.08 | 93 | 1005.1 |
| 20260507100732 | 14 | 286 | 0.0 | 1.6 | 0.00 | 0.00 | 0.08 | 92 | 1005.1 |
| 20260507100232 | 14 | 296 | 0.0 | 4.8 | 0.00 | 0.00 | 0.08 | 92 | 1004.7 |
| 20260507095731 | 14 | 325 | 0.0 | 0.0 | 0.05 | 0.00 | 0.08 | 93 | 1005.1 |
| 20260507095233 | 14 | 287 | 0.0 | 1.6 | 0.05 | 0.00 | 0.08 | 92 | 1004.7 |
| 20260507094732 | 14 | 309 | 0.0 | 3.2 | 0.03 | 0.00 | 0.05 | 92 | 1005.1 |
| 20260507094232 | 15 | 310 | 1.6 | 3.2 | 0.03 | 0.00 | 0.05 | 92 | 1004.7 |
| 20260507093731 | 15 | 37 | 3.2 | 4.8 | 0.03 | 0.00 | 0.05 | 92 | 1004.4 |
| 20260507093233 | 16 | 311 | 0.0 | 0.0 | 0.03 | 0.00 | 0.05 | 92 | 1004.4 |
| 20260507092731 | 16 | 5 | 1.6 | 3.2 | 0.03 | 0.00 | 0.05 | 93 | 1004.4 |
| 20260507092231 | 17 | 6 | 0.0 | 1.6 | 0.03 | 0.00 | 0.05 | 92 | 1004.4 |
| 20260507091729 | 17 | 336 | 4.8 | 4.8 | 0.03 | 0.00 | 0.05 | 93 | 1004.4 |
| 20260507091234 | 18 | 2 | 3.2 | 6.4 | 0.03 | 0.00 | 0.05 | 94 | 1004.1 |
| 20260507090732 | 18 | 313 | 0.0 | 0.0 | 0.00 | 0.00 | 0.03 | 94 | 1004.1 |
| 20260507090231 | 18 | 317 | 0.0 | 0.0 | 0.00 | 0.00 | 0.03 | 94 | 1004.1 |
| 20260507085730 | 18 | 310 | 0.0 | 0.0 | 0.00 | 0.00 | 0.00 | 94 | 1004.1 |
| 20260507085230 | 18 | 310 | 0.0 | 0.0 | 0.00 | 0.00 | 0.00 | 94 | 1004.1 |
| 20260507084730 | 18 | 310 | 0.0 | 0.0 | 0.00 | 0.00 | 0.00 | 94 | 1004.1 |
| 20260507083814 | 18 | 305 | 0.0 | 0.0 | 0.00 | 0.00 | 0.00 | 94 | 1004.1 |
| 20260507083229 | 18 | 307 | 0.0 | 0.0 | 0.00 | 0.00 | 0.00 | 94 | 1003.7 |
| 20260507082734 | 18 | 309 | 0.0 | 0.0 | 0.00 | 0.00 | 0.00 | 94 | 1003.7 |
| 20260507082231 | 18 | 311 | 0.0 | 0.0 | 0.00 | 0.00 | 0.00 | 93 | 1003.7 |
| 20260507081731 | 18 | 328 | 0.0 | 0.0 | 0.00 | 0.00 | 0.00 | 93 | 1003.4 |
| 20260507081232 | 18 | 314 | 0.0 | 0.0 | 0.00 | 0.00 | 0.00 | 93 | 1003.7 |
| 20260507080730 | 18 | 316 | 0.0 | 0.0 | 0.00 | 0.00 | 0.00 | 93 | 1003.7 |
| 20260507080229 | 18 | 311 | 0.0 | 0.0 | 0.00 | 0.00 | 0.00 | 93 | 1003.4 |
| 20260507075730 | 18 | 307 | 0.0 | 0.0 | 0.00 | 0.00 | 0.00 | 93 | 1003.4 |
| 20260507075231 | 18 | 307 | 0.0 | 0.0 | 0.00 | 0.00 | 0.00 | 93 | 1003.0 |
| 20260507074731 | 18 | 314 | 0.0 | 0.0 | 0.00 | 0.00 | 0.00 | 93 | 1003.0 |
| 20260507074231 | 18 | 321 | 0.0 | 0.0 | 0.00 | 0.00 | 0.00 | 92 | 1002.7 |
| 20260507073731 | 19 | 323 | 0.0 | 0.0 | 0.00 | 0.00 | 0.00 | 92 | 1002.7 |
| 20260507073232 | 19 | 303 | 0.0 | 0.0 | 0.00 | 0.00 | 0.00 | 92 | 1003.0 |
| 20260507072730 | 19 | 313 | 0.0 | 0.0 | 0.00 | 0.00 | 0.00 | 92 | 1003.0 |
| 20260507072230 | 19 | 303 | 0.0 | 0.0 | 0.00 | 0.00 | 0.00 | 92 | 1003.0 |
| 20260507071732 | 19 | 338 | 0.0 | 0.0 | 0.00 | 0.00 | 0.00 | 91 | 1003.0 |
| 20260507071229 | 19 | 324 | 0.0 | 1.6 | 0.00 | 0.00 | 0.00 | 91 | 1003.0 |
| 20260507070732 | 19 | 311 | 0.0 | 0.0 | 0.00 | 0.00 | 0.00 | 91 | 1003.4 |
| 20260507070231 | 19 | 307 | 0.0 | 0.0 | 0.00 | 0.00 | 0.00 | 91 | 1003.7 |
| 20260507065733 | 19 | 311 | 0.0 | 1.6 | 0.00 | 0.00 | 0.00 | 91 | 1003.7 |
| 20260507065233 | 19 | 312 | 0.0 | 3.2 | 0.00 | 0.00 | 0.00 | 90 | 1003.4 |
| 20260507064731 | 19 | 309 | 0.0 | 0.0 | 0.00 | 0.00 | 0.00 | 90 | 1003.4 |
| 20260507064231 | 19 | 296 | 0.0 | 0.0 | 0.00 | 0.00 | 0.00 | 90 | 1003.4 |
| 20260507063731 | 19 | 315 | 0.0 | 0.0 | 0.00 | 0.00 | 0.00 | 90 | 1003.0 |
| 20260507063232 | 18 | 310 | 0.0 | 3.2 | 0.00 | 0.00 | 0.00 | 90 | 1003.4 |
| 20260507062733 | 18 | 296 | 0.0 | 3.2 | 0.00 | 0.00 | 0.00 | 90 | 1003.0 |
| 20260507062231 | 18 | 296 | 0.0 | 0.0 | 0.00 | 0.00 | 0.00 | 90 | 1003.0 |
| 20260507061732 | 18 | 300 | 0.0 | 0.0 | 0.00 | 0.00 | 0.00 | 90 | 1003.0 |
| 20260507061230 | 18 | 300 | 0.0 | 0.0 | 0.00 | 0.00 | 0.00 | 91 | 1003.0 |
| 20260507060731 | 18 | 304 | 0.0 | 0.0 | 0.00 | 0.00 | 0.00 | 91 | 1003.0 |
| 20260507060234 | 18 | 330 | 0.0 | 0.0 | 0.00 | 0.00 | 0.00 | 91 | 1003.0 |
| 20260507055730 | 18 | 334 | 0.0 | 0.0 | 0.00 | 0.00 | 0.00 | 91 | 1003.0 |
| 20260507055231 | 18 | 279 | 0.0 | 0.0 | 0.00 | 0.00 | 0.00 | 91 | 1003.0 |
| 20260507054730 | 18 | 303 | 0.0 | 3.2 | 0.00 | 0.00 | 0.00 | 91 | 1003.0 |
| 20260507054229 | 18 | 280 | 0.0 | 0.0 | 0.00 | 0.00 | 0.00 | 91 | 1003.4 |
| 20260507053729 | 18 | 317 | 0.0 | 3.2 | 0.00 | 0.00 | 0.00 | 91 | 1003.0 |
| 20260507053230 | 18 | 311 | 0.0 | 0.0 | 0.00 | 0.00 | 0.00 | 91 | 1003.4 |
| 20260507052733 | 19 | 302 | 0.0 | 0.0 | 0.00 | 0.00 | 0.00 | 90 | 1003.4 |
| 20260507052231 | 19 | 305 | 0.0 | 0.0 | 0.00 | 0.00 | 0.00 | 89 | 1003.4 |
| 20260507051730 | 19 | 304 | 0.0 | 1.6 | 0.00 | 0.00 | 0.00 | 89 | 1003.4 |
| 20260507051231 | 19 | 301 | 0.0 | 0.0 | 0.00 | 0.00 | 0.00 | 89 | 1003.4 |
| 20260507050731 | 19 | 295 | 0.0 | 1.6 | 0.00 | 0.00 | 0.00 | 89 | 1003.7 |
| 20260507050232 | 19 | 305 | 0.0 | 0.0 | 0.00 | 0.00 | 0.00 | 89 | 1004.1 |
| 20260507045731 | 19 | 356 | 0.0 | 0.0 | 0.00 | 0.00 | 0.00 | 89 | 1004.1 |
| 20260507045229 | 19 | 325 | 0.0 | 1.6 | 0.00 | 0.00 | 0.00 | 89 | 1004.4 |
| 20260507044729 | 19 | 269 | 0.0 | 0.0 | 0.00 | 0.00 | 0.00 | 89 | 1004.4 |
| 20260507044230 | 19 | 289 | 0.0 | 1.6 | 0.00 | 0.00 | 0.00 | 89 | 1004.4 |
| 20260507043731 | 19 | 312 | 0.0 | 0.0 | 0.00 | 0.00 | 0.00 | 89 | 1004.7 |
| 20260507043230 | 19 | 298 | 0.0 | 1.6 | 0.00 | 0.00 | 0.00 | 89 | 1004.7 |
| 20260507042730 | 19 | 279 | 0.0 | 0.0 | 0.00 | 0.00 | 0.00 | 89 | 1004.7 |
| 20260507042230 | 19 | 310 | 0.0 | 0.0 | 0.00 | 0.00 | 0.00 | 89 | 1004.7 |
| 20260507041730 | 19 | 301 | 0.0 | 0.0 | 0.00 | 0.00 | 0.00 | 90 | 1004.7 |
| 20260507041231 | 19 | 309 | 0.0 | 0.0 | 0.00 | 0.00 | 0.00 | 90 | 1004.4 |
| 20260507040730 | 19 | 309 | 0.0 | 0.0 | 0.00 | 0.00 | 0.00 | 90 | 1004.4 |
| 20260507040232 | 18 | 295 | 0.0 | 0.0 | 0.00 | 0.00 | 0.00 | 90 | 1004.4 |
| 20260507035729 | 18 | 281 | 0.0 | 3.2 | 0.00 | 0.00 | 0.13 | 90 | 1004.4 |
| 20260507035231 | 18 | 297 | 0.0 | 4.8 | 0.00 | 0.00 | 0.13 | 91 | 1004.1 |
| 20260507034731 | 18 | 290 | 0.0 | 0.0 | 0.00 | 0.00 | 0.13 | 91 | 1004.4 |
| 20260507034230 | 18 | 317 | 0.0 | 0.0 | 0.00 | 0.00 | 0.13 | 91 | 1004.4 |
| 20260507033730 | 18 | 284 | 0.0 | 4.8 | 0.00 | 0.00 | 0.13 | 91 | 1004.4 |
| 20260507033231 | 18 | 311 | 0.0 | 0.0 | 0.00 | 0.00 | 0.13 | 91 | 1004.4 |
| 20260507032730 | 18 | 15 | 3.2 | 3.2 | 0.00 | 0.00 | 0.13 | 92 | 1004.1 |
| 20260507032229 | 18 | 304 | 0.0 | 3.2 | 0.00 | 0.00 | 0.13 | 92 | 1004.1 |
| 20260507031730 | 18 | 266 | 0.0 | 3.2 | 0.00 | 0.00 | 0.13 | 92 | 1003.7 |
| 20260507031231 | 18 | 284 | 0.0 | 0.0 | 0.00 | 0.00 | 0.13 | 92 | 1004.1 |
| 20260507030729 | 18 | 309 | 0.0 | 0.0 | 0.00 | 0.00 | 0.13 | 92 | 1004.1 |
| 20260507030232 | 18 | 325 | 0.0 | 0.0 | 0.00 | 0.00 | 0.13 | 92 | 1004.1 |
| 20260507025729 | 18 | 312 | 0.0 | 0.0 | 0.00 | 0.00 | 0.13 | 91 | 1004.1 |
| 20260507025229 | 18 | 303 | 0.0 | 0.0 | 0.00 | 0.00 | 0.13 | 91 | 1003.7 |
| 20260507024732 | 18 | 324 | 0.0 | 0.0 | 0.00 | 0.00 | 0.13 | 91 | 1003.7 |
| 20260507024231 | 18 | 291 | 0.0 | 0.0 | 0.00 | 0.00 | 0.13 | 91 | 1003.7 |
| 20260507023731 | 18 | 316 | 0.0 | 0.0 | 0.00 | 0.00 | 0.13 | 91 | 1004.1 |
| 20260507023232 | 18 | 308 | 0.0 | 0.0 | 0.00 | 0.00 | 0.13 | 90 | 1004.1 |
| 20260507022733 | 18 | 297 | 0.0 | 0.0 | 0.00 | 0.00 | 0.13 | 90 | 1004.1 |
| 20260507022230 | 18 | 294 | 0.0 | 0.0 | 0.00 | 0.00 | 0.13 | 90 | 1004.1 |
| 20260507021732 | 18 | 302 | 0.0 | 0.0 | 0.00 | 0.00 | 0.13 | 90 | 1004.1 |
| 20260507021231 | 18 | 304 | 0.0 | 0.0 | 0.00 | 0.00 | 0.13 | 89 | 1004.1 |
| 20260507020731 | 18 | 304 | 0.0 | 0.0 | 0.00 | 0.00 | 0.13 | 89 | 1004.1 |
| 20260507020231 | 18 | 298 | 0.0 | 0.0 | 0.00 | 0.00 | 0.13 | 89 | 1004.4 |
| 20260507015731 | 18 | 306 | 0.0 | 0.0 | 0.00 | 0.00 | 0.13 | 89 | 1004.7 |
| 20260507015232 | 18 | 302 | 0.0 | 0.0 | 0.00 | 0.00 | 0.13 | 89 | 1004.7 |
| 20260507014731 | 18 | 292 | 0.0 | 0.0 | 0.00 | 0.00 | 0.13 | 89 | 1004.7 |
| 20260507014232 | 18 | 287 | 0.0 | 0.0 | 0.00 | 0.00 | 0.13 | 88 | 1004.4 |
| 20260507013731 | 18 | 297 | 0.0 | 0.0 | 0.00 | 0.00 | 0.13 | 88 | 1004.4 |
| 20260507013231 | 18 | 300 | 0.0 | 0.0 | 0.00 | 0.00 | 0.13 | 88 | 1004.4 |
| 20260507012732 | 18 | 300 | 0.0 | 0.0 | 0.00 | 0.00 | 0.13 | 87 | 1004.1 |
| 20260507012232 | 18 | 300 | 0.0 | 0.0 | 0.00 | 0.00 | 0.13 | 87 | 1004.4 |
| 20260507011731 | 18 | 302 | 0.0 | 0.0 | 0.00 | 0.00 | 0.13 | 87 | 1004.1 |
| 20260507011231 | 18 | 302 | 0.0 | 0.0 | 0.00 | 0.00 | 0.13 | 87 | 1004.1 |
| 20260507010732 | 18 | 299 | 0.0 | 0.0 | 0.00 | 0.00 | 0.13 | 86 | 1004.4 |
| 20260507010232 | 18 | 293 | 0.0 | 0.0 | 0.00 | 0.00 | 0.13 | 86 | 1004.1 |
| 20260507005729 | 18 | 300 | 0.0 | 0.0 | 0.00 | 0.00 | 0.13 | 86 | 1004.1 |
| 20260507005231 | 19 | 302 | 0.0 | 0.0 | 0.00 | 0.00 | 0.13 | 85 | 1004.1 |
| 20260507004731 | 19 | 297 | 0.0 | 0.0 | 0.00 | 0.00 | 0.13 | 85 | 1004.1 |
| 20260507004231 | 19 | 298 | 0.0 | 0.0 | 0.00 | 0.00 | 0.13 | 85 | 1004.1 |
| 20260507003729 | 19 | 321 | 0.0 | 0.0 | 0.00 | 0.00 | 0.13 | 84 | 1004.1 |
| 20260507003231 | 19 | 304 | 0.0 | 0.0 | 0.00 | 0.00 | 0.13 | 84 | 1004.4 |
| 20260507002730 | 20 | 313 | 0.0 | 0.0 | 0.00 | 0.00 | 0.13 | 83 | 1004.1 |
| 20260507002232 | 20 | 304 | 0.0 | 0.0 | 0.00 | 0.00 | 0.13 | 83 | 1004.4 |
| 20260507001734 | 20 | 331 | 0.0 | 1.6 | 0.00 | 0.00 | 0.13 | 83 | 1004.1 |
| 20260507001230 | 20 | 322 | 0.0 | 0.0 | 0.00 | 0.00 | 0.13 | 82 | 1004.4 |
| 20260507000731 | 20 | 312 | 0.0 | 0.0 | 0.00 | 0.00 | 0.13 | 82 | 1004.4 |
| 20260507000234 | 20 | 314 | 0.0 | 0.0 | 0.00 | 0.00 | 0.13 | 82 | 1004.4 |
| 20260506235732 | 20 | 315 | 0.0 | 0.0 | 0.00 | 0.00 | 0.13 | 81 | 1004.4 |
| 20260506235232 | 20 | 302 | 0.0 | 3.2 | 0.00 | 0.00 | 0.13 | 81 | 1004.4 |
| 20260506234730 | 20 | 296 | 0.0 | 0.0 | 0.00 | 0.00 | 0.13 | 81 | 1004.1 |
| 20260506234231 | 20 | 305 | 0.0 | 1.6 | 0.00 | 0.00 | 0.13 | 80 | 1004.1 |
| 20260506233731 | 21 | 301 | 0.0 | 0.0 | 0.00 | 0.00 | 0.13 | 80 | 1004.1 |
| 20260506233232 | 21 | 314 | 0.0 | 1.6 | 0.00 | 0.00 | 0.13 | 80 | 1003.7 |
| 20260506232731 | 21 | 302 | 0.0 | 0.0 | 0.00 | 0.00 | 0.13 | 80 | 1004.1 |
| 20260506232231 | 21 | 308 | 0.0 | 0.0 | 0.00 | 0.00 | 0.13 | 79 | 1004.1 |
| 20260506231731 | 21 | 320 | 0.0 | 0.0 | 0.00 | 0.00 | 0.13 | 79 | 1004.1 |
| 20260506231231 | 21 | 312 | 1.6 | 3.2 | 0.00 | 0.00 | 0.13 | 79 | 1004.1 |
| 20260506230730 | 21 | 127 | 1.6 | 3.2 | 0.00 | 0.00 | 0.13 | 79 | 1004.1 |
| 20260506230232 | 21 | 49 | 4.8 | 4.8 | 0.00 | 0.00 | 0.13 | 79 | 1004.1 |
| 20260506225731 | 21 | 61 | 1.6 | 3.2 | 0.00 | 0.00 | 0.13 | 78 | 1004.1 |
| 20260506225231 | 21 | 79 | 3.2 | 4.8 | 0.00 | 0.00 | 0.13 | 78 | 1004.1 |
| 20260506224731 | 21 | 307 | 0.0 | 0.0 | 0.00 | 0.00 | 0.13 | 78 | 1004.1 |
| 20260506224231 | 21 | 317 | 0.0 | 3.2 | 0.00 | 0.00 | 0.13 | 77 | 1004.1 |
| 20260506223731 | 21 | 297 | 0.0 | 1.6 | 0.00 | 0.00 | 0.13 | 77 | 1004.1 |
| 20260506223231 | 21 | 303 | 0.0 | 0.0 | 0.00 | 0.00 | 0.13 | 77 | 1004.1 |
| 20260506222731 | 21 | 314 | 0.0 | 1.6 | 0.00 | 0.00 | 0.13 | 77 | 1004.1 |
| 20260506222232 | 21 | 306 | 0.0 | 0.0 | 0.00 | 0.00 | 0.13 | 76 | 1004.1 |
| 20260506221729 | 21 | 305 | 0.0 | 1.6 | 0.00 | 0.00 | 0.13 | 76 | 1004.1 |
| 20260506221229 | 21 | 170 | 0.0 | 3.2 | 0.00 | 0.00 | 0.13 | 76 | 1004.1 |
| 20260506220732 | 21 | 305 | 1.6 | 1.6 | 0.00 | 0.00 | 0.13 | 75 | 1004.1 |
| 20260506220231 | 21 | 291 | 0.0 | 3.2 | 0.00 | 0.00 | 0.13 | 75 | 1004.1 |
| 20260506215729 | 21 | 315 | 0.0 | 3.2 | 0.03 | 0.00 | 0.13 | 75 | 1004.1 |
| 20260506215231 | 21 | 292 | 3.2 | 4.8 | 0.03 | 0.00 | 0.13 | 75 | 1004.1 |
| 20260506214731 | 21 | 340 | 4.8 | 4.8 | 0.03 | 0.00 | 0.13 | 75 | 1004.1 |
| 20260506214231 | 21 | 347 | 1.6 | 3.2 | 0.03 | 0.00 | 0.13 | 74 | 1004.1 |
| 20260506213731 | 22 | 309 | 3.2 | 4.8 | 0.03 | 0.00 | 0.13 | 75 | 1004.1 |
| 20260506213231 | 22 | 318 | 0.0 | 4.8 | 0.03 | 0.00 | 0.13 | 74 | 1004.1 |
| 20260506212729 | 22 | 26 | 9.7 | 9.7 | 0.03 | 0.00 | 0.13 | 75 | 1004.1 |
| 20260506212231 | 21 | 286 | 4.8 | 4.8 | 0.03 | 0.00 | 0.13 | 74 | 1004.1 |
| 20260506211732 | 21 | 317 | 0.0 | 6.4 | 0.03 | 0.00 | 0.13 | 74 | 1004.4 |
| 20260506211231 | 22 | 357 | 3.2 | 4.8 | 0.03 | 0.00 | 0.13 | 76 | 1004.4 |
| 20260506210730 | 21 | 296 | 0.0 | 4.8 | 0.00 | 0.00 | 0.10 | 76 | 1004.1 |
| 20260506210232 | 21 | 300 | 1.6 | 3.2 | 0.00 | 0.00 | 0.10 | 76 | 1004.1 |
| 20260506205732 | 21 | 326 | 1.6 | 1.6 | 0.00 | 0.00 | 0.10 | 77 | 1004.1 |
| 20260506205231 | 21 | 20 | 0.0 | 6.4 | 0.00 | 0.00 | 0.10 | 77 | 1004.1 |
| 20260506204730 | 21 | 290 | 3.2 | 3.2 | 0.00 | 0.00 | 0.10 | 77 | 1004.1 |
| 20260506204231 | 21 | 328 | 3.2 | 3.2 | 0.00 | 0.00 | 0.10 | 78 | 1004.1 |
| 20260506203731 | 21 | 300 | 1.6 | 4.8 | 0.00 | 0.00 | 0.10 | 78 | 1004.1 |
| 20260506203232 | 21 | 292 | 4.8 | 4.8 | 0.00 | 0.00 | 0.10 | 78 | 1004.1 |
| 20260506202732 | 21 | 274 | 0.0 | 3.2 | 0.00 | 0.00 | 0.10 | 78 | 1004.1 |
| 20260506202231 | 21 | 288 | 0.0 | 3.2 | 0.00 | 0.00 | 0.10 | 78 | 1004.1 |
| 20260506201731 | 21 | 293 | 0.0 | 3.2 | 0.00 | 0.00 | 0.10 | 78 | 1004.1 |
| 20260506201232 | 21 | 294 | 0.0 | 0.0 | 0.00 | 0.00 | 0.10 | 79 | 1004.1 |
| 20260506200732 | 21 | 1 | 0.0 | 0.0 | 0.00 | 0.00 | 0.10 | 80 | 1004.1 |
| 20260506200231 | 21 | 274 | 1.6 | 4.8 | 0.00 | 0.00 | 0.10 | 79 | 1003.7 |
| 20260506195731 | 21 | 334 | 1.6 | 4.8 | 0.00 | 0.00 | 0.10 | 80 | 1004.1 |
| 20260506195232 | 21 | 334 | 1.6 | 9.7 | 0.00 | 0.00 | 0.10 | 79 | 1003.4 |
| 20260506194732 | 21 | 111 | 1.6 | 9.7 | 0.00 | 0.00 | 0.10 | 79 | 1003.0 |
| 20260506194231 | 21 | 328 | 0.0 | 4.8 | 0.00 | 0.00 | 0.10 | 79 | 1003.4 |
| 20260506193731 | 21 | 265 | 0.0 | 4.8 | 0.00 | 0.00 | 0.10 | 80 | 1003.0 |
| 20260506193234 | 21 | 305 | 0.0 | 8.0 | 0.00 | 0.00 | 0.10 | 80 | 1003.4 |